Flag for Canada Weather past 2 weeks in Brantford, Ontario, Canada

Now
64 °F

Passing clouds.


Feels Like: 64 °F
Forecast: 58 / 79 °F
Wind: 5 mph from Southeast

Location: Hamilton Airport

Current Time: Aug 2, 2014 at 2:41:34 AM

Latest Report: Aug 2, 2014 at 2:00 AM


Visibility: 15 mi

Pressure: 30.11 "Hg

Humidity: 83%

Dew point: 59 °F

Location of BrantfordLocation

Historic Weather in Brantford — Graph

°F

Brantford temperature yesterday

Maximum temperature yesterday: 79 °F (at 2:00 PM)
Minimum temperature yesterday: 59 °F (at 4:00 AM)
Average temperature yesterday: 68 °F

Past Weeks' High & Low Weather Summary

 TemperatureHumidityPressure
High82 °F (Jul 21, 4:00 PM)100% (Jul 19, 4:49 PM)30.25 "Hg (Jul 19, 4:49 PM)
Low50 °F (Jul 18, 4:00 AM)38% (Jul 25, 1:00 PM)29.57 "Hg (Jul 27, 9:00 PM)
Average66 °F77%29.99 "Hg
* Reported Jul 18 1:00 AM — Aug 2 1:00 AM, Brantford, Weather by CustomWeather, © 2014

Note: Actual official high and low records may vary slightly from our data, if they occured in-between our weather recording intervals... More about our weather records

Advertising

Brantford weather history for previous 24 hours

 ConditionsComfort  
Time TempWeatherWind HumidityBarometerVisibility
1:00 AM
Aug 2
61 °FPassing clouds.7 mph88%30.12 "Hg15 mi
12:00 AM63 °FClear.5 mph83%30.11 "Hg15 mi
11:00 PM
Aug 1
63 °FPassing clouds.6 mph83%30.12 "Hg15 mi
10:00 PM63 °FPassing clouds.7 mph83%30.12 "Hg15 mi
9:00 PM64 °FPartly sunny.9 mph83%30.12 "Hg15 mi
8:00 PM70 °FScattered clouds.8 mph73%30.11 "Hg15 mi
7:00 PM77 °FPartly sunny.6 mph61%30.09 "Hg7 mi
6:00 PM77 °FPartly sunny.12 mph61%30.09 "Hg7 mi
5:00 PM79 °FScattered clouds.13 mph61%30.08 "Hg8 mi
4:00 PM79 °FPartly sunny.15 mph65%30.09 "Hg10 mi
3:00 PM77 °FPartly sunny.12 mph65%30.10 "Hg12 mi
2:00 PM79 °FBroken clouds.12 mph58%30.10 "Hg15 mi
1:00 PM77 °FPassing clouds.7 mph61%30.11 "Hg15 mi
12:00 PM77 °FPassing clouds.9 mph61%30.11 "Hg15 mi
11:00 AM73 °FPassing clouds.9 mph74%30.11 "Hg15 mi
10:00 AM72 °FPassing clouds.5 mph78%30.11 "Hg15 mi
9:00 AM66 °FPassing clouds.6 mph88%30.11 "Hg15 mi
8:00 AM63 °FSunny.6 mph100%30.10 "Hg15 mi
7:00 AM59 °FClear.3 mph100%30.08 "Hg15 mi
6:00 AM61 °FPassing clouds.6 mph94%30.06 "Hg15 mi
5:00 AM59 °FClear.3 mph94%30.06 "Hg15 mi
4:00 AM59 °FPassing clouds.5 mph94%30.05 "Hg15 mi
3:00 AM63 °FSprinkles. Passing clouds.9 mph88%30.05 "Hg15 mi
2:00 AM63 °FSprinkles. Overcast.12 mph88%30.06 "Hg12 mi
Weather by CustomWeather, © 2014

See weather overviewHow to use our weather pages